Home   Weather   Fergus Falls   Past weeks
Flag for USA

Past Weather in Fergus Falls, Minnesota, USA — Yesterday and Last 2 Weeks

Now
3 °F

Clear.


Feels Like: -4 °F
Forecast: 16 / 0 °F
Wind: 3 mph from Northeast

Location: Fergus Falls Weather Reporting System

Current Time: Feb 27, 2020 at 3:17:08 am

Latest Report: Feb 27, 2020 at 2:36 am


Visibility: 10 mi

Pressure: 30.19 "Hg

Humidity: 85%

Dew Point: 0 °F

Location of Fergus FallsLocation

Past Weather in Fergus Falls — Graph

°F

Fergus Falls Temperature Yesterday

Maximum temperature yesterday: 16 °F (at 12:36 pm)
Minimum temperature yesterday: 1 °F (at 2:55 am)
Average temperature yesterday: 9 °F

High & Low Weather Summary for the Past Weeks

 TemperatureHumidityPressure
High36 °F (Feb 22, 12:55 pm)100% (Feb 21, 11:36 pm)30.76 "Hg (Feb 21, 11:36 pm)
Low-26 °F (Feb 13, 5:56 am)53% (Feb 16, 11:55 am)29.67 "Hg (Feb 12, 2:15 am)
Average11 °F78%30.18 "Hg
* Reported Feb 12 2:15 am — Feb 27 2:16 am, Fergus Falls. Weather by CustomWeather, © 2020

Note: Actual official high and low records may vary slightly from our data, if they occured in-between our weather recording intervals... More about our weather records

Fergus Falls Weather History for the Previous 24 Hours

Scroll right to see more
 ConditionsComfort  
Time TempWeatherWind HumidityBarometerVisibility
2:16 am
Thu, Feb 27
3 °FPassing clouds.3 mph85%30.19 "Hg10 mi
1:55 am3 °FClear.No wind85%30.19 "Hg10 mi
1:36 am3 °FClear.No wind85%30.20 "Hg10 mi
1:15 am3 °FClear.No wind85%30.19 "Hg10 mi
12:35 am5 °FClear.5 mph85%30.20 "Hg10 mi
12:16 am5 °FClear.No wind85%30.19 "Hg10 mi
11:55 pm
Wed, Feb 26
7 °FClear.3 mph78%30.20 "Hg10 mi
11:36 pm5 °FClear.3 mph85%30.21 "Hg10 mi
11:15 pm5 °FClear.3 mph85%30.21 "Hg10 mi
10:36 pm5 °FClear.3 mph85%30.22 "Hg10 mi
10:16 pm5 °FClear.No wind85%30.23 "Hg10 mi
9:55 pm5 °FClear.No wind85%30.23 "Hg10 mi
9:35 pm5 °FClear.No wind85%30.23 "Hg10 mi
9:16 pm5 °FClear.No wind92%30.24 "Hg10 mi
8:56 pm5 °FClear.3 mph85%30.24 "Hg10 mi
8:35 pm7 °FClear.No wind85%30.23 "Hg10 mi
8:16 pm7 °FClear.3 mph85%30.24 "Hg10 mi
7:55 pm7 °FClear.7 mph85%30.24 "Hg10 mi
7:35 pm7 °FClear.7 mph85%30.24 "Hg10 mi
7:16 pm7 °FClear.7 mph85%30.25 "Hg10 mi
6:35 pm9 °FClear.6 mph85%30.25 "Hg10 mi
5:56 pm10 °FSunny.8 mph85%30.26 "Hg10 mi
5:35 pm12 °FLight snow. Scattered clouds.7 mph79%30.26 "Hg10 mi
5:15 pm12 °FLight snow. Broken clouds.9 mph85%30.26 "Hg10 mi
4:56 pm12 °FLight snow. Partly sunny.9 mph85%30.26 "Hg10 mi
4:36 pm12 °FSunny.8 mph85%30.27 "Hg10 mi
4:15 pm14 °FSunny.9 mph79%30.27 "Hg10 mi
3:35 pm16 °FLight snow. Broken clouds.9 mph79%30.27 "Hg10 mi
3:15 pm16 °FLight snow. Mostly cloudy.8 mph79%30.28 "Hg5 mi
2:35 pm16 °FLight snow. Overcast.9 mph79%30.29 "Hg4 mi
2:15 pm16 °FLight snow. Overcast.9 mph79%30.30 "Hg10 mi
1:55 pm16 °FLight snow. Overcast.7 mph79%30.30 "Hg10 mi
1:36 pm16 °FLight snow. Overcast.7 mph79%30.31 "Hg10 mi
1:16 pm16 °FLight snow. More clouds than sun.6 mph79%30.31 "Hg7 mi
12:55 pm16 °FLight snow. More clouds than sun.5 mph73%30.33 "Hg3 mi
12:36 pm16 °FLight snow. More clouds than sun.5 mph73%30.34 "Hg4 mi
11:56 am14 °FLight snow. More clouds than sun.3 mph79%30.36 "Hg4 mi
11:35 am12 °FLight snow. Overcast.6 mph85%30.37 "Hg5 mi
11:15 am12 °FLight snow. Partly sunny.6 mph79%30.37 "Hg5 mi
10:55 am12 °FLight snow. Partly sunny.6 mph79%30.38 "Hg4 mi
10:36 am12 °FLight snow. More clouds than sun.6 mph79%30.39 "Hg10 mi
10:16 am12 °FLight snow. Overcast.5 mph79%30.39 "Hg7 mi
9:36 am10 °FLight snow. Overcast.No wind85%30.39 "Hg10 mi
9:15 am10 °FLight snow. Broken clouds.No wind79%30.39 "Hg7 mi
8:55 am9 °FLight snow. More clouds than sun.No wind78%30.40 "Hg7 mi
8:35 am9 °FLight snow. More clouds than sun.3 mph78%30.41 "Hg7 mi
8:15 am9 °FLight snow. Overcast.No wind78%30.42 "Hg10 mi
7:56 am9 °FOvercast.No wind78%30.42 "Hg10 mi
7:35 am7 °FOvercast.No wind85%30.42 "Hg10 mi
7:15 am7 °FOvercast.No wind85%30.42 "Hg10 mi
6:55 am7 °FOvercast.3 mph85%30.41 "Hg10 mi
6:36 am7 °FOvercast.5 mph85%30.42 "Hg10 mi
6:16 am7 °FOvercast.6 mph78%30.42 "Hg10 mi
5:56 am7 °FOvercast.5 mph85%30.43 "Hg10 mi
5:35 am7 °FOvercast.3 mph78%30.43 "Hg10 mi
5:16 am5 °FOvercast.7 mph85%30.44 "Hg10 mi
4:35 am3 °FOvercast.9 mph92%30.44 "Hg10 mi
4:16 am3 °FOvercast.6 mph85%30.44 "Hg10 mi
3:55 am1 °FPassing clouds.9 mph92%30.44 "Hg10 mi
3:35 am1 °FPassing clouds.6 mph85%30.43 "Hg10 mi
3:15 am1 °FPassing clouds.No wind92%30.43 "Hg10 mi
Weather by CustomWeather, © 2020

See weather overview

Advertising